STARLINK-2155 (48557 NORAD) Tracking and Keplerian Element Data

This shows tracking and keplerian element data for the satellite.

Feedback or suggestion? Click here.




ElementValue
Catalog48557
NameSTARLINK-2155
Epoch Orbit1199
Epoch Day214.73813896
Epoch Year2021
RAAN113.2053
Inclination53.0564
Eccentricity0.0002114
Argument of Perigee77.864
Mean Anonmoly282.2586
Mean Motion15.06392639
Decay Rate-1.026E-05
L11 48557U 21041E 21214.73813896 -.00001026 00000-0 -49982-4 0 9999
L22 48557 53.0564 113.2053 0002114 77.8640 282.2586 15.06392639 11996

Live tracking and technical data element details for STARLINK-2155 (NORAD 48557). STARLINK-2155 can be tracked NOW for your location showing map with azimuth and elevation plus other details from your city location.

Track the satellite on the map from your city or location and see movement details for azimuth, elevation, latitude, longitude, range, height, and movement on the map or in text.







IsCatalogInMostPopularTable: catalog: 48557, numindb: 19
Update: records affected: 1



GetName: 48557 STARLINK-2155

Hit Count: updated at: Tue, 03 Aug 2021 21:45:58 GMT